{"data":{"norad_id":63488,"epoch":"2026-05-25T04:03:01.711584Z","epoch_age_seconds":63765,"freshness":"FRESH","line1":"1 63488U 25009DR  26145.16876981  .00011934  00000+0  69267-3 0  9999","line2":"2 63488  97.4849 220.6561 0005787 210.8970 149.1921 15.12274167 63167","mean_motion":15.12274167,"eccentricity":0.0005787,"inclination_deg":97.4849,"raan_deg":220.6561,"arg_perigee_deg":210.897,"mean_anomaly_deg":149.1921,"bstar":0.00069267,"rev_number":6316,"period_min":95.220829094543,"perigee_km":525.26906911682,"apogee_km":533.26369779283,"semimajor_km":6907.4033834548,"source":"CELESTRAK","updated_at":"2026-05-25T13:38:03.766431Z"}}